Location: Brede
(50.9167°N, 0.6000°E)
Time: 23:22:52
(UTC+00:00)

deb Explorer IX - Visible Passes

Search period start: 05 December 2020 00:00
Search period end: 15 December 2020 00:00
Orbit: 537 x 1105 km, 38.8° (Epoch: 05 December)

Date Brightness Start Highest point End Pass type
(mag) Time Alt. Az. Time Alt. Az. Time Alt. Az.
05 Dec ? 17:41:18 10° WSW 17:45:33 19° SSW 17:49:25 10° SSE visible
06 Dec ? 17:17:43 10° WSW 17:22:11 20° SSW 17:26:15 10° SSE visible
07 Dec ? 16:54:07 10° WSW 16:58:48 21° SSW 17:03:04 10° SSE visible
08 Dec ? 16:30:31 10° WSW 16:35:24 22° SSW 16:39:51 10° SSE visible
12 Dec ? 16:47:08 10° SW 16:47:15 10° SW 16:47:21 10° SW visible
